[[{"header":{"parameterUnit":"m.s-1","parameterCategory":1,"la1":30.2991,"la2":30.254,"lo1":-89.0895,"lo2":-89.0444,"dy":0.0017,"dx":0.0017,"nx":28,"ny":28,"refTime":"2025-08-03T03:00:00:Z","depth":0,"parameterNumber":2,"parameterNumberName":"U-component_of_WINDS"},"data":[0,0,0,0,0,0,0,0,0,0,0,0,0,0,0,0,0,0,0,0,0,0,0,0,0,0,0,0,0,0,0,0,0,0,0,0,0,0,0,0,0,0,0,0,0,0,0,0,0,0,0,0,0,0,0,0,0,0,-2.2688,-2.2689,0,-2.278,-2.2781,-2.2782,-2.2821,-2.2821,-2.2821,-2.282,-2.2912,-2.2915,-2.2917,0,0,0,0,0,0,0,0,0,0,0,0,0,-2.2543,-2.2546,-2.2688,-2.2689,-2.269,-2.2779,-2.2781,-2.2782,-2.2821,-2.2821,-2.2821,-2.282,-2.2911,-2.2914,-2.2917,0,0,0,0,0,0,0,0,0,0,0,0,0,-2.2617,-2.2546,-2.2688,-2.2721,-2.2724,-2.2779,-2.2781,-2.2782,-2.2821,-2.2821,-2.2821,-2.282,-2.291,-2.2914,-2.2918,-2.2946,0,0,-2.293,-2.2931,0,0,0,0,0,0,0,0,-2.2613,-2.2623,-2.2715,-2.2718,-2.2723,-2.2789,-2.2763,-2.2837,-2.2821,-2.2784,-2.282,-2.282,-2.2871,-2.2878,-2.2896,-2.295,-2.2954,-2.293,-2.2932,-2.2934,-2.2935,0,0,0,0,0,0,0,-2.2608,-2.2619,-2.2724,-2.2716,-2.2721,-2.2729,-2.274,-2.2777,-2.2828,-2.2787,-2.2791,-2.2801,-2.2873,-2.2892,-2.2898,-2.2956,-2.293,-2.2933,-2.2936,-2.2937,-2.3035,-2.3036,0,0,0,0,0,0,-2.2598,-2.2614,-2.2721,-2.2727,-2.2666,-2.2732,-2.2744,-2.2768,-2.2827,-2.2836,-2.2801,-2.2802,-2.2885,-2.2894,-2.2902,-2.2937,-2.2934,-2.2938,-2.294,-2.3035,-2.3035,-2.3036,0,0,0,0,0,0,-2.2595,-2.2607,-2.2718,-2.2672,-2.2686,-2.2735,-2.2762,-2.277,-2.2788,-2.2838,-2.2847,-2.2811,-2.2886,-2.2896,-2.2934,-2.2941,-2.2939,-2.2943,-2.3035,-2.3035,-2.3036,-2.301,0,0,0,0,0,0,-2.259,-2.2606,-2.2618,-2.2672,-2.2689,-2.275,-2.2762,-2.2772,-2.2795,-2.2798,-2.285,-2.2858,-2.2886,-2.2928,-2.2938,-2.2946,-2.2946,-2.3034,-2.3035,-2.3035,-2.301,-2.3009,-2.3008,0,0,0,0,0,-2.2585,-2.2607,-2.2619,-2.2631,-2.2705,-2.275,-2.276,-2.2793,-2.2796,-2.2808,-2.2839,-2.2856,-2.2938,-2.2932,-2.2943,-2.2953,-2.3034,-2.3035,-2.3035,-2.3011,-2.3009,-2.3008,0,0,0,0,0,0,-2.2553,-2.2615,-2.2628,-2.2669,-2.2704,-2.2757,-2.2774,-2.2791,-2.2826,-2.2827,-2.2865,-2.2876,-2.2911,-2.2936,-2.2927,-2.2982,-2.2988,-2.299,-2.2965,-2.2964,-2.2963,-2.2956,-2.2949,0,0,0,0,0,-2.2551,-2.2583,-2.2635,-2.2666,-2.2683,-2.2725,-2.2746,-2.2768,-2.2806,-2.2821,-2.2855,-2.289,-2.2924,-2.2945,-2.2979,-2.3013,-2.3024,-2.3025,-2.3024,-2.3023,-2.3025,-2.3043,-2.3044,-2.3038,-2.3038,-2.3038,0,0,-2.2547,-2.2584,-2.2603,-2.266,-2.269,-2.2722,-2.2737,-2.277,-2.2794,-2.2826,-2.2864,-2.2889,-2.2931,-2.2967,-2.2985,-2.2989,-2.3029,-2.3024,-2.3023,-2.3026,-2.3044,-2.3045,-2.3045,-2.3038,-2.3038,-2.3038,0,0,-2.2555,-2.2587,-2.2615,-2.2645,-2.269,-2.2717,-2.2723,-2.2773,-2.2792,-2.2831,-2.2855,-2.2882,-2.294,-2.2968,-2.299,-2.3005,-2.3021,-2.3015,-2.301,-2.3027,-2.3027,-2.3028,-2.3032,-2.3034,-2.3016,-2.3016,-2.3016,0,-2.2544,-2.2593,-2.2627,-2.2659,-2.2682,-2.2712,-2.274,-2.2767,-2.282,-2.2835,-2.2839,-2.291,-2.2941,-2.2982,-2.2986,-2.3003,-2.301,-2.3009,-2.3025,-2.3026,-2.3027,-2.3031,-2.3033,-2.3015,-2.3015,-2.3015,-2.3016,0,-2.2576,-2.261,-2.2627,-2.2678,-2.2703,-2.2732,-2.277,-2.2791,-2.281,-2.2836,-2.2874,-2.2911,-2.2951,-2.2963,-2.2982,-2.3007,-2.3008,-2.3018,-2.3024,-2.3026,-2.303,-2.3032,-2.3014,-2.3014,-2.3014,-2.3015,0,0,-2.2569,-2.2637,-2.2642,-2.2665,-2.2715,-2.2741,-2.277,-2.281,-2.2827,-2.2862,-2.2887,-2.2933,-2.2942,-2.2967,-2.2989,-2.3004,-2.3012,-2.3012,-2.3013,-2.301,-2.3039,-2.3032,-2.3033,-2.3022,-2.3023,-2.3023,-2.3036,0,-2.2583,-2.2639,-2.2669,-2.2711,-2.2741,-2.2768,-2.2794,-2.2826,-2.2851,-2.2879,-2.2906,-2.2938,-2.2948,-2.2962,-2.2978,-2.3007,-2.3018,-2.3007,-2.3045,-2.3046,-2.3034,-2.3036,-2.3028,-2.3038,-2.3038,-2.3038,-2.3038,0,-2.2608,-2.2642,-2.2687,-2.2732,-2.2746,-2.2768,-2.2806,-2.2833,-2.287,-2.2886,-2.2912,-2.2934,-2.2964,-2.2967,-2.3008,-2.3,-2.3017,-2.3033,-2.3034,-2.3039,-2.3042,-2.304,-2.3042,-2.3044,-2.3042,-2.3042,-2.3041,0,-2.2597,-2.2654,-2.2688,-2.2706,-2.276,-2.2775,-2.2797,-2.2834,-2.2855,-2.2888,-2.2902,-2.2937,-2.2956,-2.2982,-2.3012,-2.3012,-2.3049,-2.3056,-2.3063,-2.3062,-2.307,-2.3069,-2.3075,-2.3081,-2.3081,-2.3081,-2.3081,0,-2.261,-2.2636,-2.2683,-2.2704,-2.2733,-2.2767,-2.2794,-2.2819,-2.2851,-2.2875,-2.2901,-2.2923,-2.2961,-2.2988,-2.3011,-2.304,-2.3049,-2.3062,-2.3068,-2.306,-2.3058,-2.3072,-2.3072,-2.3081,-2.3081,-2.3081,-2.3081,0,-2.2603,-2.2636,-2.2674,-2.2721,-2.2733,-2.2753,-2.2792,-2.2812,-2.2837,-2.2868,-2.2877,-2.2916,-2.2948,-2.298,-2.3024,-2.3039,-2.3068,-2.3076,-2.3056,-2.3059,-2.3064,-2.3063,-2.3078,-2.3082,-2.3086,-2.3086,-2.3086,0,-2.2609,-2.263,-2.2678,-2.2697,-2.2719,-2.2749,-2.277,-2.2803,-2.2824,-2.2866,-2.2881,-2.2915,-2.2944,-2.2994,-2.3025,-2.3058,-2.3067,-2.307,-2.3072,-2.3062,-2.3066,-2.3064,-2.3066,-2.3069,-2.3069,-2.3068,-2.3068,0,-2.2616,-2.263,-2.2661,-2.2697,-2.2722,-2.2751,-2.2782,-2.2795,-2.2833,-2.2855,-2.2889,-2.2911,-2.2955,-2.2988,-2.3024,-2.3046,-2.3063,-2.3067,-2.307,-2.3063,-2.305,-2.3056,-2.3053,-2.3067,-2.3067,-2.3067,-2.3067,-2.3067,-2.2615,-2.2634,-2.2671,-2.2703,-2.2729,-2.2756,-2.2777,-2.2804,-2.2833,-2.2871,-2.2888,-2.2922,-2.2955,-2.3005,-2.3027,-2.3052,-2.3057,-2.3062,-2.3063,-2.3063,-2.3061,-2.3045,-2.3059,-2.3059,-2.3059,-2.3059,-2.3059,0,-2.2623,-2.2647,-2.2677,-2.2718,-2.2743,-2.2757,-2.279,-2.281,-2.2839,-2.2869,-2.2897,-2.2934,-2.2966,-2.2999,-2.3032,-2.3045,-2.3054,-2.3053,-2.3052,-2.3057,-2.3056,-2.3049,-2.3045,-2.3045,-2.3045,-2.3045,-2.3045,-2.3045,-2.2629,-2.2661,-2.268,-2.2724,-2.2748,-2.2782,-2.2799,-2.2824,-2.2848,-2.2888,-2.2915,-2.2936,-2.2967,-2.3002,-2.3031,-2.3039,-2.305,-2.3047,-2.3058,-2.3056,-2.3057,-2.3058,-2.3052,-2.3049,-2.3049,-2.3057,-2.3057,-2.3057]},{"header":{"parameterUnit":"m.s-1","parameterCategory":1,"la1":30.2991,"la2":30.254,"lo1":-89.0895,"lo2":-89.0444,"dy":0.0017,"dx":0.0017,"nx":28,"ny":28,"refTime":"2025-08-03T03:00:00:Z","depth":0,"parameterNumber":3,"parameterNumberName":"V-component_of_WINDS"},"data":[0,0,0,0,0,0,0,0,0,0,0,0,0,0,0,0,0,0,0,0,0,0,0,0,0,0,0,0,0,0,0,0,0,0,0,0,0,0,0,0,0,0,0,0,0,0,0,0,0,0,0,0,0,0,0,0,0,0,0.3522,0.3523,0,0.3622,0.3623,0.3624,0.3663,0.3663,0.3663,0.3662,0.376,0.3762,0.3765,0,0,0,0,0,0,0,0,0,0,0,0,0,0.3361,0.3364,0.3522,0.3523,0.3525,0.3622,0.3623,0.3624,0.3663,0.3663,0.3663,0.3662,0.3759,0.3762,0.3765,0,0,0,0,0,0,0,0,0,0,0,0,0,0.3443,0.3364,0.3522,0.3556,0.356,0.3621,0.3623,0.3625,0.3663,0.3663,0.3663,0.3662,0.3758,0.3762,0.3766,0.38,0,0,0.3779,0.3781,0,0,0,0,0,0,0,0,0.3438,0.3448,0.355,0.3554,0.3558,0.363,0.3602,0.3683,0.3663,0.3624,0.3662,0.3662,0.3716,0.3724,0.3743,0.3804,0.3808,0.3779,0.3782,0.3784,0.3785,0,0,0,0,0,0,0,0.3432,0.3444,0.3561,0.3551,0.3556,0.3565,0.3576,0.3618,0.3671,0.3627,0.363,0.3642,0.3719,0.3739,0.3746,0.381,0.3779,0.3783,0.3786,0.3787,0.3904,0.3905,0,0,0,0,0,0,0.3422,0.3439,0.3558,0.3564,0.3496,0.3568,0.358,0.3607,0.3671,0.368,0.3642,0.3643,0.3732,0.3741,0.375,0.3794,0.3784,0.3788,0.379,0.3903,0.3904,0.3905,0,0,0,0,0,0,0.3418,0.3432,0.3554,0.3503,0.3519,0.3571,0.3601,0.3609,0.363,0.3682,0.3691,0.3654,0.3732,0.3744,0.3788,0.3798,0.3789,0.3793,0.3903,0.3904,0.3904,0.3884,0,0,0,0,0,0,0.3413,0.343,0.3445,0.3503,0.3522,0.3592,0.3601,0.3612,0.3638,0.364,0.3695,0.3704,0.3733,0.3781,0.3792,0.3804,0.3797,0.3902,0.3903,0.3904,0.3884,0.3884,0.3884,0,0,0,0,0,0.3407,0.3433,0.3445,0.3459,0.3541,0.3592,0.3603,0.3637,0.3638,0.3653,0.3686,0.3702,0.3795,0.3785,0.3798,0.3811,0.3902,0.3903,0.3904,0.3883,0.3884,0.3884,0,0,0,0,0,0,0.3373,0.3442,0.3455,0.3502,0.3541,0.3599,0.3618,0.3636,0.3675,0.3675,0.3714,0.3726,0.3767,0.3793,0.3781,0.3847,0.3849,0.3853,0.3829,0.383,0.383,0.3823,0.38,0,0,0,0,0,0.3371,0.3409,0.3466,0.3501,0.352,0.3566,0.3589,0.3613,0.3654,0.3671,0.3707,0.3746,0.3784,0.3808,0.3846,0.3887,0.39,0.3902,0.3902,0.3902,0.3905,0.393,0.3932,0.3909,0.3909,0.3909,0,0,0.3367,0.341,0.343,0.3495,0.3529,0.3566,0.358,0.3618,0.3645,0.3676,0.3721,0.3749,0.3794,0.3837,0.3858,0.386,0.3914,0.3904,0.3903,0.3907,0.3931,0.3933,0.3935,0.391,0.391,0.3909,0,0,0.338,0.3415,0.3449,0.3483,0.3534,0.3564,0.3572,0.3627,0.3648,0.3693,0.3717,0.3749,0.3814,0.3846,0.387,0.3895,0.3911,0.3906,0.3906,0.393,0.3931,0.3933,0.3943,0.3946,0.3908,0.3908,0.3908,0,0.3368,0.3426,0.3464,0.3502,0.3529,0.356,0.3595,0.3624,0.3684,0.3702,0.3704,0.3787,0.3819,0.3871,0.3877,0.3895,0.3905,0.39,0.3928,0.3931,0.3933,0.3942,0.3946,0.3907,0.3908,0.3908,0.3908,0,0.341,0.345,0.3471,0.353,0.356,0.3595,0.3637,0.3663,0.3683,0.3712,0.3758,0.3798,0.3846,0.3859,0.3878,0.3913,0.3913,0.3921,0.3924,0.3933,0.3943,0.3947,0.3906,0.3907,0.3907,0.3907,0,0,0.3404,0.3484,0.3492,0.3519,0.3578,0.3609,0.3645,0.3693,0.3714,0.3754,0.3786,0.384,0.3848,0.3876,0.3898,0.3919,0.3937,0.3924,0.3926,0.3926,0.3978,0.3973,0.3977,0.3947,0.3948,0.3949,0.3975,0,0.3425,0.3494,0.3529,0.3582,0.362,0.365,0.3681,0.372,0.3748,0.3783,0.3813,0.3852,0.3859,0.3876,0.3897,0.393,0.3948,0.3928,0.3976,0.3978,0.3966,0.3982,0.3976,0.3999,0.3979,0.3979,0.398,0,0.3459,0.3501,0.3559,0.3614,0.3631,0.3659,0.3706,0.3739,0.3783,0.3802,0.3834,0.3856,0.3895,0.3894,0.3947,0.3933,0.3954,0.3973,0.3975,0.3982,0.398,0.399,0.4007,0.4011,0.3986,0.3985,0.3985,0,0.345,0.3521,0.3565,0.3588,0.3653,0.3672,0.37,0.3744,0.377,0.381,0.3828,0.3871,0.3895,0.3927,0.396,0.3957,0.4011,0.4012,0.4027,0.4026,0.4038,0.4037,0.406,0.405,0.405,0.4049,0.4049,0,0.3471,0.3505,0.3562,0.359,0.3629,0.3668,0.3705,0.3734,0.3773,0.3806,0.3833,0.3863,0.3904,0.3939,0.3965,0.4005,0.4015,0.4031,0.4038,0.403,0.4028,0.4045,0.4045,0.405,0.405,0.405,0.405,0,0.3468,0.3508,0.3558,0.3616,0.3632,0.3658,0.3707,0.3734,0.3764,0.3805,0.3816,0.3862,0.3905,0.3941,0.3995,0.4013,0.4055,0.4062,0.4041,0.4045,0.4058,0.4057,0.4094,0.4101,0.4084,0.4084,0.4084,0,0.3479,0.3507,0.3568,0.3593,0.3621,0.366,0.3689,0.3727,0.3755,0.3808,0.3828,0.3872,0.391,0.3976,0.4013,0.4055,0.4064,0.4074,0.4071,0.4062,0.4066,0.4065,0.4068,0.4075,0.4075,0.4075,0.4075,0,0.3495,0.3513,0.3554,0.3602,0.3635,0.3673,0.3713,0.3731,0.3776,0.3806,0.3851,0.388,0.3937,0.3981,0.4027,0.4054,0.4072,0.4075,0.4081,0.4074,0.4061,0.4069,0.4042,0.4075,0.4075,0.4075,0.4075,0.4075,0.35,0.3527,0.3575,0.3619,0.3653,0.3689,0.3718,0.3752,0.3791,0.3842,0.3861,0.3907,0.395,0.4015,0.4041,0.4076,0.4079,0.4087,0.409,0.4091,0.4091,0.4054,0.4085,0.4085,0.4085,0.4085,0.4085,0,0.3519,0.3551,0.3592,0.3647,0.3682,0.3697,0.3742,0.3769,0.381,0.3849,0.3887,0.3938,0.398,0.4021,0.4066,0.4086,0.4095,0.4096,0.4096,0.4102,0.4085,0.4076,0.4088,0.4088,0.4088,0.4088,0.4088,0.4088,0.3532,0.3579,0.3603,0.3666,0.3698,0.3744,0.3768,0.3802,0.3834,0.3891,0.3927,0.3954,0.3994,0.4042,0.4081,0.4092,0.4107,0.4107,0.4119,0.4103,0.4103,0.4102,0.4094,0.4109,0.4109,0.4133,0.4134,0.4134]}]]